User: anonymous   Login
Location: Unspecified
(0.0000°N, 0.0000°E)
Time: 17:41:53
(UTC+02:00)
Language:

Meteor PRIRODA - Orbit

View from above orbital plane
View from above orbital plane
View from above satellite
View from above satellite

Ground track
Ground track

The orbit data is extracted from the following two-line orbital elements,

1 12585U 81065A   15145.75604059  .00001771  00000-0  91243-4 0  9992
2 12585 097.3477 130.4568 0016954 147.5242 268.7654 15.17546513847888
Epoch (UTC): 25 May 2015 18:08:41
Eccentricity: 0.0016954
inclination: 97.3477°
perigee height: 501 km
apogee height: 525 km
right ascension of ascending node: 130.4568°
argument of perigee: 147.5242°
revolutions per day: 15.17546513
mean anomaly at epoch: 268.7654°
orbit number at epoch: 84788

The dashed part of the orbit path shows where the satellite is in the earth's shadow,  

DLR